User: anonymous   Login
Location: Bonny Doon Airfield
(37.0704°N, 122.1252°W)
Time: 20:40:35
(UTC-07:00)
Language:

N. Korean satellite - Orbit

View from above orbital plane
View from above orbital plane
View from above satellite
View from above satellite

Ground track
Ground track

The orbit data is extracted from the following two-line orbital elements,

1 39026U 12072A   17291.51164031  .00001659  00000-0  65821-4 0  9990
2 39026  97.2195 305.1444 0041976  99.8738 260.7243 15.25927779268797
Epoch (UTC): 18 October 2017 12:16:45
Eccentricity: 0.0041976
inclination: 97.2195°
perigee height: 459 km
apogee height: 517 km
right ascension of ascending node: 305.1444°
argument of perigee: 99.8738°
revolutions per day: 15.25927779
mean anomaly at epoch: 260.7243°
orbit number at epoch: 26879

The dashed part of the orbit path shows where the satellite is in the earth's shadow,  

DLR